[[{"header":{"parameterUnit":"m.s-1","parameterCategory":1,"la1":30.2991,"la2":30.254,"lo1":-89.0895,"lo2":-89.0444,"dy":0.0017,"dx":0.0017,"nx":28,"ny":28,"refTime":"2023-09-27T09:00:00:Z","depth":0,"parameterNumber":2,"parameterNumberName":"U-component_of_WINDS"},"data":[0,0,0,0,0,0,0,0,0,0,0,0,0,0,0,0,0,0,0,0,0,0,0,0,0,0,0,0,0,0,0,0,0,0,0,0,0,0,0,0,0,0,0,0,0,0,0,0,0,0,0,0,0,0,0,0,0,0,-4.8902,-4.8903,0,-4.8961,-4.8962,-4.8962,-4.8858,-4.8855,-4.8852,-4.8848,-4.8905,-4.891,-4.8915,0,0,0,0,0,0,0,0,0,0,0,0,0,-4.8696,-4.8701,-4.8902,-4.8903,-4.8903,-4.8961,-4.8962,-4.8962,-4.8859,-4.8855,-4.8851,-4.8847,-4.8904,-4.8909,-4.8915,0,0,0,0,0,0,0,0,0,0,0,0,0,-4.8774,-4.8702,-4.8902,-4.8859,-4.8856,-4.8961,-4.8962,-4.8963,-4.886,-4.8855,-4.885,-4.8845,-4.8902,-4.8909,-4.8916,-4.9065,0,0,-4.8938,-4.8941,0,0,0,0,0,0,0,0,-4.8769,-4.8781,-4.8864,-4.8862,-4.8859,-4.8897,-4.891,-4.8997,-4.8861,-4.8858,-4.8848,-4.8842,-4.8907,-4.8913,-4.8935,-4.9067,-4.907,-4.8938,-4.8943,-4.8946,-4.8948,0,0,0,0,0,0,0,-4.8764,-4.8778,-4.8925,-4.8866,-4.8862,-4.8835,-4.8841,-4.8926,-4.8911,-4.8858,-4.8851,-4.8859,-4.8904,-4.8929,-4.8936,-4.907,-4.8938,-4.8945,-4.8949,-4.8952,-4.9327,-4.9332,0,0,0,0,0,0,-4.8765,-4.8774,-4.8923,-4.8927,-4.88,-4.8843,-4.8849,-4.889,-4.891,-4.8908,-4.8864,-4.8854,-4.8919,-4.8928,-4.8938,-4.9113,-4.8946,-4.8952,-4.8957,-4.9321,-4.9328,-4.9334,0,0,0,0,0,0,-4.8761,-4.8779,-4.8921,-4.8849,-4.8865,-4.8853,-4.8899,-4.8894,-4.8919,-4.8914,-4.891,-4.8892,-4.8915,-4.8928,-4.9034,-4.9113,-4.8956,-4.8962,-4.9314,-4.9323,-4.9331,-4.9464,0,0,0,0,0,0,-4.8755,-4.8778,-4.8835,-4.8851,-4.8869,-4.9018,-4.8904,-4.8899,-4.8932,-4.892,-4.894,-4.8938,-4.8912,-4.9024,-4.9041,-4.912,-4.8968,-4.9307,-4.9318,-4.9328,-4.9453,-4.9476,-4.9496,0,0,0,0,0,-4.8748,-4.887,-4.8839,-4.8857,-4.894,-4.9022,-4.9033,-4.9002,-4.8938,-4.8995,-4.8992,-4.8937,-4.9102,-4.9036,-4.9054,-4.9137,-4.9302,-4.9315,-4.9327,-4.9443,-4.9472,-4.9496,0,0,0,0,0,0,-4.8862,-4.8871,-4.8837,-4.8967,-4.8995,-4.9005,-4.9075,-4.9033,-4.9078,-4.9065,-4.9024,-4.9029,-4.9144,-4.9151,-4.9077,-4.9281,-4.9191,-4.9208,-4.9273,-4.93,-4.9321,-4.9317,-4.8974,0,0,0,0,0,-4.8903,-4.897,-4.8973,-4.9088,-4.9104,-4.9088,-4.9122,-4.9096,-4.9123,-4.9134,-4.9138,-4.9165,-4.9223,-4.9262,-4.9315,-4.9453,-4.9456,-4.9519,-4.9541,-4.9559,-4.9574,-4.9648,-4.9676,-4.9376,-4.9376,-4.9376,0,0,-4.8987,-4.9,-4.9044,-4.9111,-4.913,-4.9199,-4.9098,-4.9176,-4.9226,-4.9145,-4.9246,-4.9251,-4.9278,-4.9401,-4.9456,-4.941,-4.9658,-4.9575,-4.959,-4.9595,-4.9664,-4.9692,-4.9717,-4.9385,-4.9383,-4.9382,0,0,-4.9175,-4.9192,-4.929,-4.9311,-4.9341,-4.9329,-4.9353,-4.9369,-4.937,-4.9471,-4.9411,-4.947,-4.957,-4.9592,-4.9617,-4.9815,-4.9766,-4.9833,-4.9947,-5.0019,-5.0043,-5.0063,-5.0134,-5.0159,-4.9848,-4.9848,-4.9849,0,-4.9275,-4.9379,-4.9345,-4.9427,-4.9458,-4.9389,-4.9486,-4.9508,-4.9553,-4.9576,-4.9525,-4.965,-4.9663,-4.979,-4.9839,-4.9861,-4.9886,-4.983,-5.0042,-5.0063,-5.0081,-5.0148,-5.0174,-4.9856,-4.9855,-4.9855,-4.9854,0,-4.95,-4.9573,-4.9648,-4.9695,-4.9734,-4.9824,-4.9802,-4.9846,-4.9816,-4.981,-4.9914,-4.9928,-4.9982,-5.001,-4.9982,-5.0134,-5.0105,-5.0049,-4.9958,-5.0119,-5.018,-5.0205,-4.9868,-4.9865,-4.9863,-4.9861,0,0,-4.9761,-4.9789,-4.9817,-4.9838,-4.9866,-4.9921,-5.0007,-5.0062,-5.01,-5.0133,-5.0204,-5.0291,-5.0239,-5.0267,-5.024,-5.0304,-5.046,-5.024,-5.024,-5.028,-5.0627,-5.0669,-5.0699,-5.0428,-5.0432,-5.0436,-5.0625,0,-4.9948,-5.0098,-5.0071,-5.0216,-5.0282,-5.0218,-5.0293,-5.0318,-5.0314,-5.0369,-5.0364,-5.0427,-5.0354,-5.0371,-5.0431,-5.0428,-5.0529,-5.0414,-5.0492,-5.0495,-5.0487,-5.0731,-5.0775,-5.0953,-5.0649,-5.0653,-5.0656,0,-5.0186,-5.0231,-5.0383,-5.0401,-5.0428,-5.0496,-5.0544,-5.0597,-5.0624,-5.0617,-5.0649,-5.061,-5.0695,-5.0603,-5.0719,-5.0642,-5.0672,-5.0676,-5.0682,-5.0687,-5.0585,-5.0743,-5.1009,-5.1036,-5.0693,-5.069,-5.0688,0,-5.0361,-5.0459,-5.0563,-5.0582,-5.0606,-5.0655,-5.0667,-5.0689,-5.0723,-5.0765,-5.0787,-5.0837,-5.0865,-5.0904,-5.088,-5.0816,-5.1,-5.0906,-5.0996,-5.0997,-5.1037,-5.1035,-5.1311,-5.1058,-5.1057,-5.1057,-5.1056,0,-5.0573,-5.0668,-5.0641,-5.0705,-5.0811,-5.0777,-5.0882,-5.0886,-5.0906,-5.0969,-5.0916,-5.0976,-5.0941,-5.0998,-5.0979,-5.1078,-5.109,-5.1086,-5.108,-5.1091,-5.1092,-5.111,-5.1096,-5.1064,-5.1062,-5.1061,-5.106,0,-5.0785,-5.0771,-5.088,-5.0894,-5.09,-5.0977,-5.0988,-5.1047,-5.104,-5.112,-5.1137,-5.1126,-5.119,-5.117,-5.1239,-5.1227,-5.1351,-5.133,-5.1343,-5.1337,-5.1428,-5.1419,-5.1725,-5.1763,-5.1486,-5.1489,-5.1491,0,-5.0921,-5.0993,-5.1016,-5.1055,-5.1071,-5.1134,-5.1169,-5.114,-5.1178,-5.1215,-5.1269,-5.1329,-5.1375,-5.1481,-5.1478,-5.153,-5.1509,-5.1613,-5.1517,-5.1525,-5.151,-5.1506,-5.1513,-5.1632,-5.1635,-5.1637,-5.164,0,-5.1163,-5.1152,-5.1206,-5.1258,-5.1303,-5.1342,-5.1376,-5.141,-5.1382,-5.1429,-5.1494,-5.1531,-5.1602,-5.1661,-5.1709,-5.172,-5.1676,-5.167,-5.1693,-5.1705,-5.1709,-5.1708,-5.1395,-5.1663,-5.1661,-5.1659,-5.1658,-5.1657,-5.134,-5.1402,-5.1427,-5.1489,-5.1512,-5.1545,-5.1602,-5.1602,-5.1657,-5.1713,-5.1692,-5.1767,-5.1792,-5.1852,-5.1869,-5.1927,-5.1887,-5.1921,-5.1929,-5.1938,-5.195,-5.1701,-5.1935,-5.1935,-5.1934,-5.1934,-5.1933,0,-5.1579,-5.1593,-5.165,-5.17,-5.1749,-5.1704,-5.1739,-5.1783,-5.185,-5.1877,-5.1925,-5.2,-5.2058,-5.206,-5.2114,-5.216,-5.2141,-5.2175,-5.2171,-5.2174,-5.1982,-5.1957,-5.219,-5.219,-5.219,-5.219,-5.219,-5.219,-5.1709,-5.181,-5.1803,-5.1915,-5.1928,-5.2002,-5.2026,-5.2057,-5.2078,-5.2165,-5.2214,-5.2215,-5.2232,-5.2287,-5.2338,-5.2337,-5.2359,-5.2401,-5.2393,-5.2213,-5.2188,-5.2163,-5.2139,-5.2407,-5.2407,-5.258,-5.2581,-5.2583]},{"header":{"parameterUnit":"m.s-1","parameterCategory":1,"la1":30.2991,"la2":30.254,"lo1":-89.0895,"lo2":-89.0444,"dy":0.0017,"dx":0.0017,"nx":28,"ny":28,"refTime":"2023-09-27T09:00:00:Z","depth":0,"parameterNumber":3,"parameterNumberName":"V-component_of_WINDS"},"data":[0,0,0,0,0,0,0,0,0,0,0,0,0,0,0,0,0,0,0,0,0,0,0,0,0,0,0,0,0,0,0,0,0,0,0,0,0,0,0,0,0,0,0,0,0,0,0,0,0,0,0,0,0,0,0,0,0,0,-3.7585,-3.7586,0,-3.7646,-3.7647,-3.7648,-3.7618,-3.7616,-3.7615,-3.7613,-3.7672,-3.7675,-3.7678,0,0,0,0,0,0,0,0,0,0,0,0,0,-3.744,-3.7443,-3.7585,-3.7586,-3.7587,-3.7646,-3.7647,-3.7648,-3.7618,-3.7616,-3.7614,-3.7613,-3.7671,-3.7675,-3.7678,0,0,0,0,0,0,0,0,0,0,0,0,0,-3.7502,-3.7444,-3.7585,-3.7579,-3.7579,-3.7646,-3.7647,-3.7648,-3.7619,-3.7616,-3.7614,-3.7612,-3.767,-3.7674,-3.7679,-3.7754,0,0,-3.7693,-3.7695,0,0,0,0,0,0,0,0,-3.7499,-3.7508,-3.7579,-3.758,-3.758,-3.7622,-3.7617,-3.7683,-3.7619,-3.7604,-3.7613,-3.7611,-3.7657,-3.7663,-3.7679,-3.7757,-3.7759,-3.7693,-3.7696,-3.7698,-3.7699,0,0,0,0,0,0,0,-3.7495,-3.7505,-3.7609,-3.7581,-3.7581,-3.7573,-3.7579,-3.763,-3.7643,-3.7605,-3.7603,-3.7611,-3.7657,-3.7675,-3.768,-3.776,-3.7693,-3.7697,-3.77,-3.7702,-3.7901,-3.7903,0,0,0,0,0,0,-3.7491,-3.7501,-3.7607,-3.7611,-3.7533,-3.7577,-3.7584,-3.7611,-3.7642,-3.7645,-3.7612,-3.7609,-3.7668,-3.7675,-3.7682,-3.7771,-3.7698,-3.7702,-3.7705,-3.7898,-3.7902,-3.7904,0,0,0,0,0,0,-3.7488,-3.7501,-3.7605,-3.7556,-3.7569,-3.7582,-3.7613,-3.7613,-3.7631,-3.7648,-3.765,-3.7629,-3.7667,-3.7676,-3.7736,-3.7773,-3.7704,-3.7708,-3.7895,-3.7899,-3.7903,-3.795,0,0,0,0,0,0,-3.7484,-3.75,-3.7529,-3.7557,-3.7571,-3.7659,-3.7615,-3.7616,-3.764,-3.7636,-3.7664,-3.7666,-3.7666,-3.773,-3.7741,-3.7778,-3.7712,-3.7892,-3.7897,-3.7902,-3.7946,-3.7955,-3.7964,0,0,0,0,0,-3.7479,-3.754,-3.7531,-3.7544,-3.7608,-3.7661,-3.7669,-3.7669,-3.7643,-3.7672,-3.7682,-3.7665,-3.7767,-3.7736,-3.7748,-3.7787,-3.789,-3.7896,-3.7901,-3.7942,-3.7953,-3.7964,0,0,0,0,0,0,-3.7514,-3.7543,-3.7534,-3.7605,-3.7631,-3.7656,-3.7693,-3.7681,-3.7714,-3.7709,-3.7706,-3.7712,-3.7775,-3.7787,-3.7752,-3.7861,-3.7824,-3.7833,-3.7851,-3.7862,-3.7871,-3.7866,-3.7716,0,0,0,0,0,-3.7531,-3.7573,-3.7595,-3.7656,-3.767,-3.7679,-3.7702,-3.7699,-3.7726,-3.7736,-3.7751,-3.7776,-3.7814,-3.7839,-3.7875,-3.7948,-3.7953,-3.798,-3.799,-3.7997,-3.8004,-3.8043,-3.8055,-3.7923,-3.7923,-3.7923,0,0,-3.7565,-3.7586,-3.7612,-3.7664,-3.7683,-3.7725,-3.7688,-3.7735,-3.7765,-3.7743,-3.7801,-3.7813,-3.7841,-3.7908,-3.7938,-3.792,-3.8042,-3.8004,-3.801,-3.8013,-3.805,-3.8062,-3.8073,-3.7927,-3.7927,-3.7926,0,0,-3.7648,-3.7668,-3.7721,-3.7742,-3.7773,-3.7779,-3.7792,-3.7819,-3.7826,-3.7885,-3.7869,-3.7905,-3.797,-3.799,-3.8009,-3.8101,-3.8086,-3.8112,-3.8159,-3.8197,-3.8208,-3.8217,-3.8248,-3.826,-3.812,-3.812,-3.812,0,-3.7686,-3.775,-3.7749,-3.7797,-3.782,-3.7803,-3.7855,-3.7875,-3.7916,-3.7931,-3.7911,-3.7993,-3.801,-3.8081,-3.8104,-3.812,-3.8133,-3.8109,-3.8206,-3.8215,-3.8224,-3.8254,-3.8266,-3.8123,-3.8122,-3.8122,-3.8122,0,-3.7794,-3.7839,-3.7878,-3.7918,-3.7946,-3.7996,-3.8002,-3.8029,-3.8024,-3.8032,-3.8092,-3.8112,-3.8152,-3.8168,-3.8164,-3.8239,-3.8227,-3.8207,-3.8169,-3.824,-3.8268,-3.8279,-3.8127,-3.8126,-3.8125,-3.8124,0,0,-3.79,-3.7941,-3.7955,-3.7974,-3.8007,-3.804,-3.8089,-3.8129,-3.8152,-3.8181,-3.8221,-3.8277,-3.8258,-3.828,-3.8277,-3.8311,-3.8381,-3.8286,-3.8287,-3.8302,-3.8464,-3.8478,-3.8491,-3.8371,-3.8374,-3.8375,-3.8461,0,-3.7985,-3.8072,-3.8073,-3.8152,-3.8193,-3.8178,-3.822,-3.8244,-3.8253,-3.8288,-3.8297,-3.8336,-3.831,-3.8322,-3.8355,-3.8365,-3.8413,-3.8359,-3.8407,-3.8409,-3.84,-3.8506,-3.8521,-3.8601,-3.8472,-3.8474,-3.8475,0,-3.8095,-3.8129,-3.8212,-3.824,-3.8257,-3.8295,-3.8331,-3.8365,-3.8392,-3.8396,-3.8421,-3.8413,-3.8461,-3.8424,-3.849,-3.8454,-3.8473,-3.8482,-3.8485,-3.8488,-3.8446,-3.8511,-3.8627,-3.8638,-3.8493,-3.8491,-3.849,0,-3.8163,-3.8229,-3.8288,-3.8304,-3.8337,-3.8364,-3.8379,-3.8404,-3.8428,-3.8459,-3.8474,-3.8511,-3.853,-3.8558,-3.856,-3.8533,-3.8627,-3.8589,-3.863,-3.863,-3.865,-3.8648,-3.8769,-3.8664,-3.8664,-3.8664,-3.8664,0,-3.8257,-3.8309,-3.8319,-3.8355,-3.8411,-3.8412,-3.8468,-3.8481,-3.8503,-3.854,-3.8529,-3.8563,-3.8564,-3.86,-3.8602,-3.8656,-3.8665,-3.8669,-3.8668,-3.8669,-3.8668,-3.8681,-3.8675,-3.8667,-3.8667,-3.8666,-3.8665,0,-3.8342,-3.8351,-3.8414,-3.8441,-3.8449,-3.8489,-3.8512,-3.8545,-3.8553,-3.86,-3.8611,-3.8623,-3.8664,-3.867,-3.8717,-3.8718,-3.8783,-3.8778,-3.8775,-3.8773,-3.8814,-3.8809,-3.8945,-3.8963,-3.8848,-3.8849,-3.885,0,-3.8401,-3.844,-3.8472,-3.8497,-3.8513,-3.8553,-3.8578,-3.858,-3.8605,-3.8639,-3.8668,-3.8709,-3.8741,-3.8807,-3.8819,-3.8855,-3.885,-3.8895,-3.8855,-3.8854,-3.8849,-3.8846,-3.885,-3.8902,-3.8903,-3.8904,-3.8905,0,-3.8504,-3.8507,-3.8543,-3.8581,-3.8611,-3.8641,-3.8669,-3.8689,-3.8695,-3.8724,-3.8766,-3.8792,-3.8841,-3.888,-3.8916,-3.893,-3.8918,-3.8918,-3.8929,-3.893,-3.8926,-3.8928,-3.8795,-3.8915,-3.8914,-3.8913,-3.8912,-3.8912,-3.8577,-3.8611,-3.8639,-3.868,-3.8701,-3.8728,-3.8761,-3.8773,-3.8809,-3.885,-3.8849,-3.8895,-3.8921,-3.8968,-3.8984,-3.902,-3.9005,-3.9021,-3.9025,-3.9029,-3.9033,-3.8922,-3.9027,-3.9026,-3.9026,-3.9026,-3.9026,0,-3.8678,-3.8696,-3.8733,-3.8774,-3.8805,-3.8793,-3.8824,-3.8851,-3.8892,-3.8917,-3.895,-3.8998,-3.9036,-3.9052,-3.909,-3.9115,-3.9111,-3.9125,-3.9122,-3.9125,-3.9044,-3.9031,-3.9128,-3.9128,-3.9128,-3.9128,-3.9128,-3.9127,-3.8735,-3.8792,-3.8798,-3.8865,-3.8882,-3.8928,-3.8946,-3.897,-3.8991,-3.9046,-3.9078,-3.9089,-3.911,-3.9149,-3.9183,-3.9187,-3.92,-3.9217,-3.9218,-3.9141,-3.9131,-3.9121,-3.9108,-3.922,-3.922,-3.9295,-3.9296,-3.9297]}]]